TimeCST,TemperatureF,Dew PointF,Humidity,Sea Level PressureIn,VisibilityMPH,Wind Direction,Wind SpeedMPH,Gust SpeedMPH,PrecipitationIn,Events,Conditions,WindDirDegrees,DateUTC
12:52 AM,43.0,42.1,97,30.15,5.0,South,5.8,-,N/A,,Clear,170,2012-11-20 06:52:00
1:52 AM,42.8,41.0,93,30.14,4.0,SSW,5.8,-,N/A,,Clear,200,2012-11-20 07:52:00
2:52 AM,42.1,39.9,92,30.14,6.0,South,4.6,-,N/A,,Clear,190,2012-11-20 08:52:00
3:52 AM,41.0,39.0,93,30.13,7.0,SSW,6.9,-,N/A,,Clear,200,2012-11-20 09:52:00
4:52 AM,43.0,41.0,93,30.14,8.0,SW,5.8,-,N/A,,Clear,230,2012-11-20 10:52:00
5:52 AM,48.0,43.0,83,30.15,10.0,West,6.9,-,N/A,,Clear,260,2012-11-20 11:52:00
6:52 AM,46.0,43.0,89,30.17,10.0,Calm,Calm,-,N/A,,Clear,0,2012-11-20 12:52:00
7:52 AM,44.1,42.1,93,30.18,6.0,Calm,Calm,-,N/A,,Clear,0,2012-11-20 13:52:00
8:52 AM,52.0,46.0,80,30.19,7.0,West,9.2,-,N/A,,Clear,280,2012-11-20 14:52:00
9:52 AM,53.6,46.4,77,30.19,10.0,WNW,6.9,-,N/A,,Clear,300,2012-11-20 15:52:00
10:52 AM,57.9,45.0,62,30.19,10.0,WNW,5.8,-,N/A,,Clear,300,2012-11-20 16:52:00
11:52 AM,60.1,44.1,55,30.17,10.0,West,10.4,-,N/A,,Clear,280,2012-11-20 17:52:00
12:52 PM,63.0,44.1,50,30.15,10.0,WNW,9.2,-,N/A,,Clear,290,2012-11-20 18:52:00
1:52 PM,64.9,43.0,45,30.13,10.0,NW,8.1,-,N/A,,Clear,310,2012-11-20 19:52:00
2:52 PM,64.9,44.1,47,30.13,10.0,NW,6.9,-,N/A,,Clear,310,2012-11-20 20:52:00
3:52 PM,62.1,45.0,53,30.15,10.0,NNW,10.4,-,N/A,,Clear,330,2012-11-20 21:52:00
4:52 PM,54.0,44.1,69,30.17,10.0,NNW,8.1,-,N/A,,Clear,340,2012-11-20 22:52:00
5:52 PM,51.1,43.0,74,30.18,10.0,NNW,5.8,-,N/A,,Clear,330,2012-11-20 23:52:00
6:52 PM,51.1,42.1,71,30.20,10.0,NW,3.5,-,N/A,,Clear,320,2012-11-21 00:52:00
7:52 PM,44.1,39.0,82,30.22,10.0,Calm,Calm,-,N/A,,Clear,0,2012-11-21 01:52:00
8:52 PM,43.0,37.9,82,30.22,9.0,Calm,Calm,-,N/A,,Clear,0,2012-11-21 02:52:00
9:52 PM,39.9,37.9,93,30.22,5.0,Calm,Calm,-,N/A,,Clear,0,2012-11-21 03:52:00
10:52 PM,39.0,37.0,93,30.23,5.0,Calm,Calm,-,N/A,,Clear,0,2012-11-21 04:52:00
11:01 PM,39.2,37.4,93,30.23,10.0,Calm,Calm,-,N/A,,Clear,0,2012-11-21 05:01:00
11:52 PM,39.9,37.9,93,30.23,10.0,Calm,Calm,-,N/A,,Clear,0,2012-11-21 05:52:00